[[{"header":{"parameterUnit":"m.s-1","parameterCategory":1,"la1":30.2991,"la2":30.254,"lo1":-89.0895,"lo2":-89.0444,"dy":0.0017,"dx":0.0017,"nx":28,"ny":28,"refTime":"2024-08-18T21:00:00:Z","depth":0,"parameterNumber":2,"parameterNumberName":"U-component_of_WINDS"},"data":[0,0,0,0,0,0,0,0,0,0,0,0,0,0,0,0,0,0,0,0,0,0,0,0,0,0,0,0,0,0,0,0,0,0,0,0,0,0,0,0,0,0,0,0,0,0,0,0,0,0,0,0,0,0,0,0,0,0,-0.5245,-0.5247,0,-0.537,-0.5371,-0.5372,-0.5398,-0.5397,-0.5396,-0.5395,-0.5523,-0.5527,-0.5531,0,0,0,0,0,0,0,0,0,0,0,0,0,-0.503,-0.5034,-0.5245,-0.5247,-0.5248,-0.5369,-0.5371,-0.5373,-0.5398,-0.5397,-0.5396,-0.5395,-0.5521,-0.5526,-0.5531,0,0,0,0,0,0,0,0,0,0,0,0,0,-0.5136,-0.5035,-0.5245,-0.5276,-0.528,-0.5369,-0.5371,-0.5373,-0.5399,-0.5397,-0.5396,-0.5394,-0.552,-0.5526,-0.5532,-0.56,0,0,-0.5552,-0.5554,0,0,0,0,0,0,0,0,-0.513,-0.5144,-0.527,-0.5274,-0.5278,-0.5367,-0.5342,-0.5449,-0.5399,-0.5353,-0.5395,-0.5394,-0.5472,-0.5482,-0.5509,-0.5606,-0.5611,-0.5552,-0.5556,-0.5559,-0.5561,0,0,0,0,0,0,0,-0.5122,-0.5138,-0.5294,-0.5271,-0.5277,-0.5283,-0.5297,-0.5362,-0.5419,-0.5357,-0.5359,-0.5374,-0.5474,-0.5502,-0.5512,-0.5613,-0.5552,-0.5558,-0.5562,-0.5564,-0.5773,-0.5775,0,0,0,0,0,0,-0.511,-0.5132,-0.529,-0.5298,-0.5199,-0.5288,-0.5303,-0.534,-0.5418,-0.5429,-0.5375,-0.5374,-0.5492,-0.5504,-0.5516,-0.5602,-0.5559,-0.5565,-0.5568,-0.5771,-0.5773,-0.5775,0,0,0,0,0,0,-0.5105,-0.5124,-0.5285,-0.5216,-0.5237,-0.5293,-0.5334,-0.5343,-0.5371,-0.5432,-0.5442,-0.5393,-0.5491,-0.5507,-0.5579,-0.5607,-0.5568,-0.5573,-0.5769,-0.5772,-0.5774,-0.5773,0,0,0,0,0,0,-0.5099,-0.5122,-0.5148,-0.5216,-0.5241,-0.5346,-0.5336,-0.5347,-0.5382,-0.5383,-0.5452,-0.5462,-0.5492,-0.5569,-0.5585,-0.5615,-0.5578,-0.5767,-0.577,-0.5774,-0.5771,-0.5775,-0.5779,0,0,0,0,0,-0.5091,-0.5142,-0.5149,-0.5168,-0.5274,-0.5348,-0.5362,-0.5395,-0.5384,-0.5412,-0.545,-0.546,-0.5601,-0.5577,-0.5595,-0.5626,-0.5766,-0.577,-0.5773,-0.5769,-0.5774,-0.5778,0,0,0,0,0,0,-0.5075,-0.5152,-0.516,-0.5235,-0.5285,-0.5352,-0.5387,-0.5399,-0.5453,-0.5451,-0.549,-0.5505,-0.5575,-0.5608,-0.5579,-0.5697,-0.5683,-0.569,-0.5673,-0.5678,-0.5682,-0.5674,-0.5584,0,0,0,0,0,-0.5081,-0.5134,-0.5197,-0.5257,-0.5282,-0.533,-0.5363,-0.5384,-0.5437,-0.5458,-0.5502,-0.5553,-0.5609,-0.5645,-0.57,-0.5775,-0.5791,-0.5806,-0.581,-0.5813,-0.5819,-0.5862,-0.587,-0.5788,-0.5788,-0.5788,0,0,-0.5092,-0.514,-0.5171,-0.5255,-0.5296,-0.5351,-0.5347,-0.5405,-0.5446,-0.5467,-0.5538,-0.5572,-0.5631,-0.5705,-0.574,-0.5735,-0.5845,-0.5818,-0.5819,-0.5825,-0.5867,-0.5875,-0.5882,-0.5791,-0.579,-0.579,0,0,-0.5141,-0.5183,-0.5238,-0.5279,-0.5341,-0.5373,-0.5386,-0.5452,-0.5475,-0.5547,-0.5564,-0.5613,-0.5708,-0.5751,-0.5785,-0.585,-0.5861,-0.5866,-0.5888,-0.593,-0.5936,-0.5942,-0.5967,-0.5975,-0.5872,-0.5873,-0.5873,0,-0.5148,-0.5231,-0.5264,-0.5322,-0.5358,-0.538,-0.5437,-0.5475,-0.5552,-0.5577,-0.5569,-0.569,-0.5732,-0.5816,-0.5832,-0.5859,-0.5875,-0.5859,-0.5932,-0.5939,-0.5945,-0.5969,-0.5978,-0.5873,-0.5873,-0.5873,-0.5873,0,-0.5236,-0.5293,-0.533,-0.5404,-0.5445,-0.5501,-0.5544,-0.5581,-0.5599,-0.5632,-0.5705,-0.5755,-0.5821,-0.5843,-0.586,-0.593,-0.5925,-0.5924,-0.5912,-0.5952,-0.5976,-0.5985,-0.5873,-0.5873,-0.5873,-0.5873,0,0,-0.528,-0.5372,-0.5385,-0.542,-0.549,-0.5535,-0.5592,-0.5657,-0.5689,-0.574,-0.579,-0.5871,-0.5871,-0.5909,-0.5932,-0.5968,-0.6018,-0.5963,-0.5965,-0.5973,-0.61,-0.6101,-0.6111,-0.6025,-0.6027,-0.6029,-0.6095,0,-0.5339,-0.5442,-0.5475,-0.5562,-0.5615,-0.5637,-0.5687,-0.5736,-0.5767,-0.5818,-0.5853,-0.591,-0.5905,-0.5929,-0.5965,-0.6004,-0.6044,-0.6,-0.6073,-0.6075,-0.6059,-0.6123,-0.6124,-0.6184,-0.6104,-0.6106,-0.6107,0,-0.5421,-0.5475,-0.5567,-0.5632,-0.5656,-0.57,-0.5763,-0.581,-0.5866,-0.5886,-0.5929,-0.5949,-0.601,-0.5993,-0.6078,-0.6047,-0.6079,-0.6102,-0.6106,-0.6115,-0.6095,-0.6135,-0.6204,-0.6214,-0.6121,-0.612,-0.6119,0,-0.5445,-0.5541,-0.5609,-0.5637,-0.5714,-0.5745,-0.5778,-0.5832,-0.587,-0.5924,-0.5949,-0.6009,-0.6042,-0.6089,-0.6124,-0.6108,-0.6207,-0.6192,-0.6227,-0.6226,-0.6248,-0.6246,-0.6325,-0.6266,-0.6266,-0.6265,-0.6265,0,-0.5508,-0.5564,-0.5621,-0.5663,-0.5727,-0.5763,-0.5825,-0.5859,-0.5908,-0.5957,-0.5979,-0.6024,-0.6068,-0.612,-0.6148,-0.6215,-0.6229,-0.6248,-0.6255,-0.6247,-0.6245,-0.627,-0.6267,-0.6268,-0.6267,-0.6267,-0.6266,0,-0.5547,-0.5587,-0.5663,-0.5729,-0.5747,-0.5791,-0.5848,-0.5889,-0.5922,-0.5984,-0.6001,-0.6052,-0.6114,-0.6154,-0.6232,-0.6251,-0.6325,-0.633,-0.6307,-0.631,-0.6343,-0.634,-0.6441,-0.6457,-0.6386,-0.6387,-0.6387,0,-0.5585,-0.5629,-0.57,-0.5735,-0.5768,-0.5823,-0.5862,-0.5899,-0.5938,-0.6005,-0.6039,-0.6102,-0.6155,-0.6253,-0.6298,-0.6358,-0.6366,-0.6397,-0.6375,-0.6366,-0.6368,-0.6366,-0.6371,-0.6401,-0.6402,-0.6402,-0.6402,0,-0.5649,-0.5667,-0.5721,-0.5783,-0.5828,-0.5878,-0.5928,-0.5955,-0.6001,-0.6044,-0.6108,-0.6149,-0.6229,-0.6292,-0.6357,-0.6391,-0.6405,-0.6409,-0.642,-0.6413,-0.6398,-0.6408,-0.6318,-0.6407,-0.6406,-0.6406,-0.6406,-0.6406,-0.569,-0.573,-0.5787,-0.5847,-0.5888,-0.5935,-0.5978,-0.6016,-0.607,-0.6139,-0.6157,-0.6224,-0.628,-0.6368,-0.6403,-0.6457,-0.6453,-0.6469,-0.6473,-0.6477,-0.6478,-0.6389,-0.6468,-0.6468,-0.6468,-0.6468,-0.6468,0,-0.5757,-0.5794,-0.5849,-0.5918,-0.5966,-0.5974,-0.603,-0.6069,-0.6128,-0.6178,-0.623,-0.6304,-0.6365,-0.6414,-0.6478,-0.6511,-0.6519,-0.6526,-0.6525,-0.6533,-0.6477,-0.6462,-0.6519,-0.6519,-0.6519,-0.6519,-0.6519,-0.6519,-0.5797,-0.5866,-0.589,-0.5981,-0.6018,-0.6084,-0.6115,-0.6159,-0.6199,-0.6281,-0.6332,-0.6363,-0.6414,-0.6481,-0.6538,-0.6551,-0.6573,-0.658,-0.6594,-0.6542,-0.6536,-0.6531,-0.6517,-0.6584,-0.6584,-0.6646,-0.6646,-0.6646]},{"header":{"parameterUnit":"m.s-1","parameterCategory":1,"la1":30.2991,"la2":30.254,"lo1":-89.0895,"lo2":-89.0444,"dy":0.0017,"dx":0.0017,"nx":28,"ny":28,"refTime":"2024-08-18T21:00:00:Z","depth":0,"parameterNumber":3,"parameterNumberName":"V-component_of_WINDS"},"data":[0,0,0,0,0,0,0,0,0,0,0,0,0,0,0,0,0,0,0,0,0,0,0,0,0,0,0,0,0,0,0,0,0,0,0,0,0,0,0,0,0,0,0,0,0,0,0,0,0,0,0,0,0,0,0,0,0,0,-4.5451,-4.5452,0,-4.5522,-4.5523,-4.5524,-4.5442,-4.5439,-4.5436,-4.5433,-4.5504,-4.5508,-4.5513,0,0,0,0,0,0,0,0,0,0,0,0,0,-4.5243,-4.5247,-4.5451,-4.5452,-4.5453,-4.5522,-4.5523,-4.5524,-4.5443,-4.5439,-4.5436,-4.5432,-4.5502,-4.5508,-4.5514,0,0,0,0,0,0,0,0,0,0,0,0,0,-4.5326,-4.5249,-4.5451,-4.5421,-4.5419,-4.5522,-4.5523,-4.5524,-4.5444,-4.5439,-4.5435,-4.543,-4.55,-4.5507,-4.5514,-4.565,0,0,-4.5536,-4.5539,0,0,0,0,0,0,0,0,-4.5321,-4.5333,-4.5424,-4.5423,-4.5421,-4.5469,-4.5475,-4.5566,-4.5445,-4.5434,-4.5433,-4.5428,-4.5496,-4.5503,-4.5526,-4.5653,-4.5656,-4.5537,-4.5541,-4.5544,-4.5546,0,0,0,0,0,0,0,-4.5315,-4.533,-4.5479,-4.5426,-4.5424,-4.5403,-4.541,-4.5492,-4.549,-4.5435,-4.5429,-4.5439,-4.5494,-4.552,-4.5527,-4.5657,-4.5536,-4.5543,-4.5547,-4.555,-4.5898,-4.5903,0,0,0,0,0,0,-4.5313,-4.5326,-4.5477,-4.5481,-4.5359,-4.5411,-4.5418,-4.5458,-4.5489,-4.5489,-4.5443,-4.5435,-4.551,-4.5519,-4.5529,-4.569,-4.5544,-4.555,-4.5555,-4.5893,-4.5899,-4.5904,0,0,0,0,0,0,-4.5309,-4.5328,-4.5474,-4.5402,-4.5419,-4.5419,-4.5465,-4.5462,-4.5488,-4.5495,-4.5493,-4.547,-4.5507,-4.5519,-4.5621,-4.5692,-4.5554,-4.556,-4.5887,-4.5895,-4.5902,-4.6013,0,0,0,0,0,0,-4.5304,-4.5327,-4.5379,-4.5404,-4.5423,-4.5565,-4.5469,-4.5467,-4.55,-4.5491,-4.552,-4.552,-4.5504,-4.561,-4.5628,-4.5699,-4.5566,-4.5881,-4.5891,-4.5899,-4.6003,-4.6023,-4.6041,0,0,0,0,0,-4.5296,-4.5407,-4.5382,-4.5401,-4.5488,-4.5569,-4.558,-4.5561,-4.5506,-4.5558,-4.5563,-4.5519,-4.5681,-4.5621,-4.564,-4.5715,-4.5876,-4.5888,-4.5899,-4.5994,-4.6019,-4.604,0,0,0,0,0,0,-4.5389,-4.5409,-4.5382,-4.5504,-4.5536,-4.5556,-4.5621,-4.5587,-4.5635,-4.5624,-4.5596,-4.5603,-4.5711,-4.5722,-4.5656,-4.5847,-4.5769,-4.5785,-4.5836,-4.586,-4.5878,-4.5874,-4.5572,0,0,0,0,0,-4.5424,-4.5489,-4.5503,-4.5609,-4.5626,-4.5621,-4.5655,-4.5637,-4.5669,-4.5682,-4.5693,-4.5725,-4.5783,-4.5821,-4.5875,-4.6004,-4.6009,-4.6064,-4.6083,-4.6098,-4.6112,-4.6181,-4.6206,-4.5941,-4.5941,-4.5941,0,0,-4.5496,-4.5515,-4.5558,-4.5628,-4.565,-4.5718,-4.5633,-4.5707,-4.5757,-4.5693,-4.5789,-4.5799,-4.5832,-4.5948,-4.5999,-4.5961,-4.6187,-4.6113,-4.6125,-4.6131,-4.6196,-4.6221,-4.6243,-4.5949,-4.5948,-4.5947,0,0,-4.5663,-4.5684,-4.5775,-4.5799,-4.5834,-4.583,-4.5852,-4.5877,-4.5882,-4.5978,-4.5932,-4.5989,-4.6089,-4.6115,-4.6141,-4.6317,-4.6279,-4.6335,-4.6435,-4.6502,-4.6523,-4.6542,-4.6605,-4.6628,-4.6349,-4.6349,-4.635,0,-4.5748,-4.5849,-4.5825,-4.5904,-4.5936,-4.5881,-4.5973,-4.5997,-4.6048,-4.6071,-4.6027,-4.6152,-4.6171,-4.6292,-4.6335,-4.6358,-4.6382,-4.6333,-4.6522,-4.654,-4.6557,-4.6617,-4.6641,-4.6356,-4.6355,-4.6355,-4.6354,0,-4.5952,-4.6022,-4.6091,-4.6143,-4.6182,-4.6267,-4.6256,-4.6299,-4.6277,-4.6277,-4.6376,-4.6396,-4.6453,-4.648,-4.6459,-4.6599,-4.6574,-4.6527,-4.6448,-4.659,-4.6646,-4.6668,-4.6366,-4.6363,-4.6361,-4.636,0,0,-4.618,-4.6217,-4.6243,-4.6266,-4.6301,-4.6355,-4.6436,-4.6493,-4.653,-4.6567,-4.6634,-4.672,-4.6677,-4.6707,-4.6688,-4.6748,-4.6887,-4.6693,-4.6693,-4.6729,-4.7042,-4.7078,-4.7105,-4.6861,-4.6865,-4.6868,-4.7039,0,-4.6347,-4.649,-4.6472,-4.6609,-4.6673,-4.6622,-4.6693,-4.6722,-4.6724,-4.6778,-4.678,-4.6842,-4.678,-4.6797,-4.6854,-4.6858,-4.6949,-4.6845,-4.6923,-4.6927,-4.6918,-4.7134,-4.7173,-4.7333,-4.7061,-4.7064,-4.7067,0,-4.6562,-4.6608,-4.6752,-4.6777,-4.6803,-4.6868,-4.6918,-4.6971,-4.7002,-4.6999,-4.7033,-4.7004,-4.7085,-4.7004,-4.7115,-4.7045,-4.7076,-4.7083,-4.7088,-4.7096,-4.7006,-4.7148,-4.7383,-4.7408,-4.7101,-4.7099,-4.7096,0,-4.6715,-4.6812,-4.6911,-4.6932,-4.6964,-4.701,-4.7025,-4.7052,-4.7087,-4.7131,-4.7153,-4.7205,-4.7234,-4.7274,-4.726,-4.7202,-4.7374,-4.7292,-4.7374,-4.7375,-4.7414,-4.7412,-4.7658,-4.7432,-4.7431,-4.7431,-4.743,0,-4.6905,-4.6996,-4.698,-4.7041,-4.7141,-4.7117,-4.7216,-4.7225,-4.7249,-4.731,-4.7268,-4.7326,-4.7302,-4.7359,-4.7347,-4.7441,-4.7454,-4.7454,-4.745,-4.7459,-4.7459,-4.7479,-4.7468,-4.7437,-4.7436,-4.7435,-4.7434,0,-4.7094,-4.7087,-4.7192,-4.7213,-4.722,-4.7293,-4.731,-4.7367,-4.7366,-4.7444,-4.746,-4.7458,-4.7522,-4.7511,-4.7582,-4.7574,-4.7692,-4.7674,-4.7682,-4.7678,-4.7761,-4.7754,-4.803,-4.8066,-4.7816,-4.7818,-4.782,0,-4.7216,-4.7284,-4.7313,-4.7352,-4.7371,-4.7433,-4.7469,-4.7448,-4.7487,-4.7528,-4.758,-4.764,-4.7688,-4.7792,-4.7796,-4.785,-4.7833,-4.7926,-4.7841,-4.7848,-4.7836,-4.7833,-4.7839,-4.7944,-4.7946,-4.7949,-4.7951,0,-4.7434,-4.7428,-4.7481,-4.7535,-4.7579,-4.762,-4.7656,-4.7689,-4.7672,-4.7718,-4.7783,-4.782,-4.7893,-4.7953,-4.8003,-4.8017,-4.7982,-4.7977,-4.7999,-4.8009,-4.8012,-4.8013,-4.773,-4.7971,-4.7969,-4.7968,-4.7967,-4.7966,-4.7594,-4.7652,-4.7682,-4.7744,-4.7769,-4.7804,-4.7859,-4.7864,-4.7919,-4.7977,-4.7961,-4.8036,-4.8064,-4.8128,-4.8148,-4.8205,-4.8171,-4.8202,-4.821,-4.8219,-4.823,-4.8002,-4.8214,-4.8213,-4.8213,-4.8212,-4.8212,0,-4.7811,-4.7827,-4.7884,-4.7937,-4.7985,-4.7947,-4.7986,-4.8028,-4.8095,-4.8125,-4.8173,-4.8248,-4.8306,-4.8315,-4.837,-4.8415,-4.84,-4.843,-4.8427,-4.8431,-4.8257,-4.8233,-4.8441,-4.8441,-4.8441,-4.8441,-4.8441,-4.8441,-4.7929,-4.8027,-4.8024,-4.8133,-4.8148,-4.8222,-4.8247,-4.8279,-4.8303,-4.839,-4.8438,-4.8444,-4.8465,-4.8522,-4.8573,-4.8574,-4.8597,-4.8634,-4.8629,-4.8466,-4.8443,-4.8422,-4.8399,-4.8639,-4.8639,-4.8798,-4.88,-4.8801]}]]